[[{"header":{"parameterUnit":"m.s-1","parameterCategory":1,"la1":30.2991,"la2":30.254,"lo1":-89.0895,"lo2":-89.0444,"dy":0.0017,"dx":0.0017,"nx":28,"ny":28,"refTime":"2025-06-11T03:00:00:Z","depth":0,"parameterNumber":2,"parameterNumberName":"U-component_of_WINDS"},"data":[0,0,0,0,0,0,0,0,0,0,0,0,0,0,0,0,0,0,0,0,0,0,0,0,0,0,0,0,0,0,0,0,0,0,0,0,0,0,0,0,0,0,0,0,0,0,0,0,0,0,0,0,0,0,0,0,0,0,-1.7724,-1.7723,0,-1.7663,-1.7662,-1.7662,-1.7599,-1.7598,-1.7597,-1.7596,-1.7532,-1.7531,-1.753,0,0,0,0,0,0,0,0,0,0,0,0,0,-1.7785,-1.7784,-1.7724,-1.7723,-1.7722,-1.7663,-1.7662,-1.7661,-1.7599,-1.7598,-1.7597,-1.7596,-1.7532,-1.7531,-1.753,0,0,0,0,0,0,0,0,0,0,0,0,0,-1.7745,-1.7784,-1.7724,-1.7684,-1.768,-1.7663,-1.7662,-1.7661,-1.7599,-1.7598,-1.7597,-1.7595,-1.7533,-1.7531,-1.753,-1.7547,0,0,-1.7526,-1.7525,0,0,0,0,0,0,0,0,-1.7747,-1.7743,-1.7691,-1.7687,-1.7682,-1.7637,-1.766,-1.7623,-1.7599,-1.763,-1.7596,-1.7595,-1.7568,-1.7564,-1.7555,-1.7544,-1.7542,-1.7526,-1.7525,-1.7524,-1.7524,0,0,0,0,0,0,0,-1.775,-1.7745,-1.77,-1.769,-1.7685,-1.7669,-1.7662,-1.7653,-1.7607,-1.7627,-1.7622,-1.7616,-1.7565,-1.7557,-1.7553,-1.7541,-1.7526,-1.7525,-1.7524,-1.7523,-1.7542,-1.7543,0,0,0,0,0,0,-1.7759,-1.7748,-1.7702,-1.7698,-1.7712,-1.7669,-1.7661,-1.7653,-1.7607,-1.7598,-1.7617,-1.7613,-1.7559,-1.7555,-1.7551,-1.7568,-1.7524,-1.7523,-1.7522,-1.7541,-1.7542,-1.7544,0,0,0,0,0,0,-1.7761,-1.7756,-1.7704,-1.7721,-1.7714,-1.7669,-1.7661,-1.7652,-1.7643,-1.7599,-1.7591,-1.7617,-1.7558,-1.7552,-1.7549,-1.7565,-1.7523,-1.7521,-1.7539,-1.7541,-1.7543,-1.7603,0,0,0,0,0,0,-1.7763,-1.7757,-1.7763,-1.7722,-1.7713,-1.7704,-1.7662,-1.7652,-1.7641,-1.7636,-1.7596,-1.7589,-1.7557,-1.7551,-1.7548,-1.7562,-1.752,-1.7537,-1.754,-1.7542,-1.7599,-1.7607,-1.7613,0,0,0,0,0,-1.7765,-1.7782,-1.7763,-1.7758,-1.772,-1.7705,-1.77,-1.7663,-1.7643,-1.7649,-1.7621,-1.759,-1.7564,-1.7552,-1.7547,-1.7561,-1.7536,-1.7539,-1.7542,-1.7596,-1.7605,-1.7613,0,0,0,0,0,0,-1.7824,-1.7775,-1.7755,-1.7759,-1.7737,-1.7694,-1.77,-1.7674,-1.7656,-1.7652,-1.7607,-1.7598,-1.76,-1.758,-1.7567,-1.7576,-1.7546,-1.7548,-1.7589,-1.7597,-1.7604,-1.7608,-1.7519,0,0,0,0,0,-1.7838,-1.783,-1.7788,-1.7795,-1.7785,-1.7745,-1.7737,-1.7711,-1.7686,-1.7676,-1.7648,-1.7624,-1.7611,-1.7603,-1.7588,-1.7597,-1.7587,-1.7604,-1.7611,-1.7617,-1.7619,-1.7623,-1.763,-1.7553,-1.7553,-1.7553,0,0,-1.7866,-1.7838,-1.7836,-1.7807,-1.7786,-1.7779,-1.7738,-1.7731,-1.7726,-1.7675,-1.767,-1.7649,-1.762,-1.7623,-1.7622,-1.7606,-1.7638,-1.7621,-1.7626,-1.7625,-1.7626,-1.7634,-1.764,-1.7555,-1.7555,-1.7555,0,0,-1.7913,-1.7891,-1.7895,-1.7876,-1.7847,-1.782,-1.7821,-1.7783,-1.7767,-1.7762,-1.7724,-1.7717,-1.7694,-1.7675,-1.7663,-1.7704,-1.7675,-1.7701,-1.7736,-1.774,-1.7746,-1.7751,-1.7766,-1.7772,-1.7703,-1.7703,-1.7703,0,-1.7951,-1.7939,-1.7901,-1.7897,-1.7886,-1.7841,-1.7845,-1.7828,-1.7795,-1.7788,-1.777,-1.7742,-1.7719,-1.7717,-1.7727,-1.7719,-1.7718,-1.7704,-1.7748,-1.7753,-1.7757,-1.7771,-1.7777,-1.7706,-1.7706,-1.7706,-1.7705,0,-1.7988,-1.798,-1.7987,-1.7957,-1.7946,-1.7946,-1.7908,-1.7902,-1.7877,-1.7852,-1.7848,-1.7819,-1.7798,-1.7796,-1.7771,-1.779,-1.7781,-1.7757,-1.7726,-1.7769,-1.7781,-1.7786,-1.7711,-1.771,-1.7709,-1.7708,0,0,-1.8069,-1.8019,-1.8022,-1.8008,-1.7973,-1.7966,-1.7965,-1.7945,-1.794,-1.7919,-1.7917,-1.79,-1.7877,-1.7863,-1.7836,-1.784,-1.7875,-1.7815,-1.7813,-1.7827,-1.7895,-1.7913,-1.792,-1.7856,-1.7857,-1.7857,-1.7897,0,-1.811,-1.8105,-1.8071,-1.8076,-1.8068,-1.8026,-1.8025,-1.8003,-1.798,-1.797,-1.7945,-1.7933,-1.7905,-1.7896,-1.7898,-1.787,-1.7888,-1.7867,-1.7853,-1.7853,-1.7861,-1.7926,-1.7945,-1.7984,-1.7902,-1.7902,-1.7903,0,-1.8157,-1.814,-1.8144,-1.8109,-1.8105,-1.8104,-1.8084,-1.8075,-1.805,-1.8033,-1.8018,-1.7988,-1.7984,-1.7955,-1.7949,-1.7936,-1.7928,-1.7914,-1.7915,-1.7911,-1.788,-1.7925,-1.7996,-1.8002,-1.791,-1.7909,-1.7909,0,-1.8216,-1.8194,-1.8194,-1.8183,-1.8143,-1.8144,-1.8127,-1.81,-1.809,-1.8072,-1.8066,-1.8048,-1.8037,-1.8024,-1.799,-1.7972,-1.7988,-1.7956,-1.7973,-1.7974,-1.7978,-1.7978,-1.8049,-1.7974,-1.7974,-1.7974,-1.7973,0,-1.8265,-1.8269,-1.822,-1.822,-1.8224,-1.8185,-1.8189,-1.8168,-1.8145,-1.814,-1.8102,-1.8098,-1.8054,-1.8045,-1.8018,-1.8017,-1.8013,-1.7999,-1.7992,-1.8002,-1.8004,-1.7996,-1.7993,-1.7975,-1.7975,-1.7974,-1.7974,0,-1.8332,-1.8299,-1.8296,-1.8258,-1.8249,-1.8253,-1.8221,-1.8219,-1.8195,-1.8189,-1.8185,-1.8146,-1.8134,-1.8099,-1.8077,-1.8059,-1.8066,-1.8052,-1.8075,-1.807,-1.8089,-1.8088,-1.8157,-1.8164,-1.8085,-1.8086,-1.8087,0,-1.8365,-1.8367,-1.8331,-1.8325,-1.831,-1.8301,-1.8291,-1.8253,-1.8245,-1.8217,-1.8219,-1.8203,-1.8189,-1.8171,-1.814,-1.8124,-1.811,-1.8135,-1.8107,-1.8118,-1.811,-1.811,-1.811,-1.8141,-1.8142,-1.8143,-1.8144,0,-1.8428,-1.8412,-1.84,-1.8382,-1.8372,-1.8356,-1.8338,-1.8336,-1.8293,-1.8286,-1.8273,-1.8262,-1.8241,-1.8226,-1.8205,-1.8187,-1.8158,-1.8153,-1.8156,-1.8167,-1.818,-1.8173,-1.8091,-1.8151,-1.8151,-1.815,-1.815,-1.8149,-1.8479,-1.8479,-1.8454,-1.8441,-1.8424,-1.8409,-1.8405,-1.8381,-1.837,-1.835,-1.8328,-1.8318,-1.8293,-1.8261,-1.8246,-1.8237,-1.8222,-1.8226,-1.8227,-1.8229,-1.8234,-1.8181,-1.8233,-1.8233,-1.8232,-1.8232,-1.8232,0,-1.854,-1.8521,-1.8511,-1.8487,-1.8478,-1.8453,-1.8432,-1.8426,-1.8417,-1.8397,-1.8384,-1.837,-1.8355,-1.8324,-1.8307,-1.8306,-1.8293,-1.8303,-1.8303,-1.8299,-1.8248,-1.8247,-1.8314,-1.8314,-1.8314,-1.8314,-1.8314,-1.8314,-1.857,-1.857,-1.8551,-1.8542,-1.8523,-1.8513,-1.8504,-1.8489,-1.8472,-1.8458,-1.8447,-1.8427,-1.8402,-1.8383,-1.8369,-1.836,-1.8356,-1.837,-1.8357,-1.831,-1.8303,-1.8295,-1.8294,-1.837,-1.837,-1.8409,-1.8409,-1.8409]},{"header":{"parameterUnit":"m.s-1","parameterCategory":1,"la1":30.2991,"la2":30.254,"lo1":-89.0895,"lo2":-89.0444,"dy":0.0017,"dx":0.0017,"nx":28,"ny":28,"refTime":"2025-06-11T03:00:00:Z","depth":0,"parameterNumber":3,"parameterNumberName":"V-component_of_WINDS"},"data":[0,0,0,0,0,0,0,0,0,0,0,0,0,0,0,0,0,0,0,0,0,0,0,0,0,0,0,0,0,0,0,0,0,0,0,0,0,0,0,0,0,0,0,0,0,0,0,0,0,0,0,0,0,0,0,0,0,0,3.5014,3.5014,0,3.503,3.503,3.503,3.4999,3.4998,3.4997,3.4996,3.501,3.5012,3.5013,0,0,0,0,0,0,0,0,0,0,0,0,0,3.4955,3.4956,3.5014,3.5014,3.5014,3.503,3.503,3.503,3.4999,3.4998,3.4996,3.4995,3.501,3.5011,3.5013,0,0,0,0,0,0,0,0,0,0,0,0,0,3.4977,3.4957,3.5014,3.5,3.4999,3.503,3.503,3.503,3.4999,3.4998,3.4996,3.4995,3.5009,3.5011,3.5013,3.5056,0,0,3.5019,3.502,0,0,0,0,0,0,0,0,3.4976,3.4979,3.5002,3.5001,3.5,3.5011,3.5014,3.5039,3.5,3.4999,3.4996,3.4994,3.5011,3.5013,3.5019,3.5057,3.5058,3.5019,3.5021,3.5022,3.5022,0,0,0,0,0,0,0,3.4974,3.4978,3.502,3.5003,3.5001,3.4993,3.4995,3.5019,3.5014,3.4999,3.4997,3.4999,3.5011,3.5018,3.502,3.5058,3.5019,3.5021,3.5022,3.5023,3.5132,3.5134,0,0,0,0,0,0,3.4974,3.4977,3.5019,3.502,3.4984,3.4996,3.4997,3.5009,3.5013,3.5013,3.5001,3.4998,3.5015,3.5017,3.502,3.5071,3.5022,3.5023,3.5025,3.513,3.5132,3.5134,0,0,0,0,0,0,3.4973,3.4979,3.5019,3.4998,3.5003,3.4998,3.5012,3.501,3.5017,3.5014,3.5013,3.5009,3.5014,3.5017,3.5048,3.5071,3.5024,3.5026,3.5128,3.5131,3.5133,3.5174,0,0,0,0,0,0,3.4972,3.4978,3.4995,3.4999,3.5004,3.5047,3.5013,3.5011,3.5021,3.5017,3.5022,3.5021,3.5013,3.5045,3.505,3.5073,3.5028,3.5126,3.513,3.5133,3.517,3.5177,3.5184,0,0,0,0,0,3.497,3.5005,3.4996,3.5001,3.5025,3.5048,3.5051,3.5041,3.5023,3.5039,3.5038,3.5021,3.5068,3.5048,3.5053,3.5078,3.5125,3.5129,3.5132,3.5167,3.5176,3.5183,0,0,0,0,0,0,3.5003,3.5005,3.4995,3.5033,3.5041,3.5043,3.5063,3.5051,3.5063,3.5059,3.5046,3.5048,3.5081,3.5082,3.506,3.512,3.5093,3.5098,3.5118,3.5126,3.5133,3.5132,3.5029,0,0,0,0,0,3.5015,3.5034,3.5035,3.5068,3.5073,3.5068,3.5077,3.5069,3.5077,3.508,3.508,3.5088,3.5104,3.5115,3.513,3.517,3.5171,3.519,3.5196,3.5202,3.5206,3.5228,3.5237,3.5147,3.5147,3.5147,0,0,3.5039,3.5043,3.5056,3.5075,3.508,3.51,3.507,3.5093,3.5108,3.5083,3.5112,3.5113,3.512,3.5156,3.5172,3.5158,3.5232,3.5207,3.5211,3.5213,3.5233,3.5242,3.5249,3.5149,3.5149,3.5148,0,0,3.5094,3.5099,3.5127,3.5134,3.5142,3.5139,3.5146,3.515,3.515,3.5179,3.5161,3.5179,3.5207,3.5213,3.522,3.5279,3.5264,3.5284,3.5318,3.534,3.5347,3.5353,3.5375,3.5382,3.5288,3.5289,3.5289,0,3.5123,3.5154,3.5143,3.5168,3.5177,3.5156,3.5185,3.5191,3.5204,3.5211,3.5195,3.5231,3.5235,3.5272,3.5287,3.5293,3.53,3.5283,3.5347,3.5353,3.5359,3.5379,3.5387,3.5291,3.5291,3.529,3.529,0,3.5189,3.5211,3.5233,3.5247,3.5258,3.5284,3.5278,3.5291,3.5282,3.528,3.5311,3.5314,3.533,3.5338,3.5329,3.5375,3.5366,3.5349,3.5322,3.537,3.5389,3.5396,3.5294,3.5293,3.5293,3.5292,0,0,3.5265,3.5274,3.5282,3.5289,3.5297,3.5313,3.5339,3.5355,3.5367,3.5376,3.5397,3.5422,3.5407,3.5415,3.5407,3.5426,3.5473,3.5407,3.5407,3.5419,3.5524,3.5537,3.5546,3.5463,3.5465,3.5466,3.5523,0,3.532,3.5365,3.5357,3.54,3.542,3.5401,3.5424,3.5431,3.543,3.5446,3.5445,3.5463,3.5441,3.5446,3.5464,3.5463,3.5494,3.5459,3.5483,3.5484,3.5482,3.5555,3.5569,3.5623,3.553,3.5532,3.5532,0,3.539,3.5404,3.5449,3.5456,3.5464,3.5484,3.5499,3.5514,3.5523,3.5521,3.553,3.5519,3.5544,3.5516,3.5551,3.5528,3.5537,3.5538,3.554,3.5542,3.5511,3.556,3.564,3.5648,3.5544,3.5543,3.5542,0,3.5442,3.5471,3.5503,3.5509,3.5516,3.5531,3.5535,3.5542,3.5552,3.5565,3.5572,3.5587,3.5595,3.5607,3.56,3.558,3.5636,3.5608,3.5635,3.5636,3.5648,3.5647,3.5731,3.5653,3.5653,3.5653,3.5653,0,3.5504,3.5533,3.5526,3.5545,3.5577,3.5568,3.5599,3.5601,3.5607,3.5626,3.561,3.5629,3.5618,3.5635,3.563,3.566,3.5664,3.5663,3.5661,3.5664,3.5665,3.567,3.5666,3.5655,3.5655,3.5654,3.5654,0,3.5567,3.5563,3.5597,3.5602,3.5604,3.5627,3.5631,3.5649,3.5647,3.5672,3.5677,3.5674,3.5694,3.5688,3.5709,3.5705,3.5743,3.5737,3.5741,3.5739,3.5767,3.5765,3.5858,3.587,3.5784,3.5785,3.5786,0,3.5607,3.5629,3.5637,3.5649,3.5655,3.5674,3.5685,3.5677,3.5689,3.57,3.5717,3.5736,3.575,3.5782,3.5782,3.5798,3.5792,3.5823,3.5794,3.5797,3.5793,3.5792,3.5794,3.5829,3.583,3.5831,3.5832,0,3.5679,3.5677,3.5694,3.5711,3.5724,3.5737,3.5748,3.5758,3.5751,3.5765,3.5786,3.5797,3.5819,3.5838,3.5853,3.5856,3.5843,3.5841,3.5848,3.5852,3.5854,3.5854,3.5757,3.5839,3.5838,3.5838,3.5837,3.5837,3.5733,3.5752,3.5761,3.578,3.5788,3.5798,3.5816,3.5817,3.5834,3.5852,3.5846,3.5869,3.5877,3.5896,3.5902,3.592,3.5908,3.5918,3.5921,3.5924,3.5928,3.5851,3.5922,3.5922,3.5922,3.5922,3.5922,0,3.5804,3.5809,3.5828,3.5844,3.586,3.5846,3.5858,3.5872,3.5893,3.5902,3.5917,3.5941,3.5959,3.596,3.5977,3.5992,3.5986,3.5997,3.5996,3.5997,3.5937,3.5929,3.6001,3.6001,3.6001,3.6001,3.6001,3.6001,3.5844,3.5875,3.5874,3.5909,3.5914,3.5938,3.5946,3.5956,3.5963,3.5991,3.6006,3.6007,3.6013,3.603,3.6047,3.6046,3.6054,3.6067,3.6064,3.6009,3.6001,3.5993,3.5986,3.6068,3.6068,3.6122,3.6123,3.6123]}]]